MCF1BS LGKR-LGIR

Flight info

Callsign MCF1BS
Flight time 1h 12m
Altitude 31000
Route MALED UA14 ARA UL612 TRL UM601 MIL UL617 XAVIS
Aircraft A320/M-SDE3FGHIRWY/LB1

Departure

Time 2026-04-29 09:02
Airport Corfu Ioannis Kapodistrias International Airport (LGKR)

Arrival

Time 2026-04-29 10:14
Airport Heraklion International Nikos Kazantzakis Airport (LGIR)
Time Latitude Longitude Altitude Speed Heading
2026-04-29 08:46 39.60629 19.91367 9 ft 0 kts 79°
2026-04-29 08:51 39.60629 19.91363 9 ft 3 kts 79°
2026-04-29 08:51 39.60623 19.91330 10 ft 4 kts 73°
2026-04-29 08:52 39.60613 19.91298 10 ft 4 kts 53°
2026-04-29 08:52 39.60599 19.91281 9 ft 4 kts 339°
2026-04-29 08:52 39.60594 19.91283 11 ft 0 kts 319°
2026-04-29 08:58 39.60617 19.91258 9 ft 14 kts 319°
2026-04-29 08:58 39.60711 19.91212 9 ft 14 kts 348°
2026-04-29 08:59 39.60800 19.91186 9 ft 12 kts 349°
2026-04-29 08:59 39.60878 19.91166 9 ft 11 kts 351°
2026-04-29 08:59 39.60945 19.91153 9 ft 9 kts 351°
2026-04-29 08:59 39.61002 19.91138 9 ft 8 kts 348°
2026-04-29 09:00 39.61051 19.91124 11 ft 7 kts 348°
2026-04-29 09:00 39.61110 19.91109 10 ft 9 kts 349°
2026-04-29 09:00 39.61169 19.91094 10 ft 8 kts 349°
2026-04-29 09:00 39.61208 19.91061 10 ft 8 kts 308°
2026-04-29 09:01 39.61217 19.90982 10 ft 9 kts 246°
2026-04-29 09:01 39.61170 19.90962 10 ft 7 kts 170°
2026-04-29 09:01 39.61165 19.90964 10 ft 0 kts 169°
2026-04-29 09:01 39.61124 19.90975 10 ft 25 kts 168°
2026-04-29 09:02 39.60679 19.91088 8 ft 101 kts 169°
2026-04-29 09:02 39.59786 19.91319 16 ft 158 kts 168°
2026-04-29 09:02 39.58706 19.91589 675 ft 156 kts 163°
2026-04-29 09:02 39.57870 19.92436 1381 ft 158 kts 127°
2026-04-29 09:03 39.57142 19.93530 1986 ft 166 kts 137°
2026-04-29 09:03 39.56212 19.94578 2345 ft 188 kts 141°
2026-04-29 09:03 39.55140 19.95717 2664 ft 211 kts 141°
2026-04-29 09:03 39.53964 19.96962 3129 ft 224 kts 141°
2026-04-29 09:04 39.52751 19.98254 3948 ft 226 kts 141°
2026-04-29 09:04 39.51532 19.99558 4821 ft 229 kts 141°
2026-04-29 09:04 39.50300 20.00883 5630 ft 232 kts 141°
2026-04-29 09:04 39.49050 20.02229 6451 ft 235 kts 141°
2026-04-29 09:05 39.47786 20.03593 7221 ft 239 kts 141°
2026-04-29 09:05 39.46503 20.04979 8001 ft 242 kts 141°
2026-04-29 09:05 39.45201 20.06383 8807 ft 245 kts 141°
2026-04-29 09:05 39.43893 20.07792 9577 ft 253 kts 141°
2026-04-29 09:06 39.42462 20.09297 10017 ft 277 kts 142°
2026-04-29 09:06 39.40877 20.10944 10386 ft 301 kts 142°
2026-04-29 09:06 39.39198 20.12678 10690 ft 325 kts 142°
2026-04-29 09:06 39.37342 20.14590 10963 ft 349 kts 142°
2026-04-29 09:07 39.35406 20.16584 11166 ft 372 kts 142°
2026-04-29 09:07 39.33298 20.18759 11347 ft 394 kts 142°
2026-04-29 09:07 39.31150 20.20975 11833 ft 404 kts 142°
2026-04-29 09:07 39.28945 20.23253 12483 ft 408 kts 142°
2026-04-29 09:08 39.26713 20.25558 13147 ft 413 kts 142°
2026-04-29 09:08 39.24460 20.27881 13798 ft 417 kts 142°
2026-04-29 09:08 39.22184 20.30224 14386 ft 421 kts 142°
2026-04-29 09:08 39.19887 20.32588 14958 ft 424 kts 142°
2026-04-29 09:09 39.17572 20.34969 15509 ft 428 kts 142°
2026-04-29 09:09 39.15237 20.37372 16069 ft 431 kts 142°
2026-04-29 09:09 39.12879 20.39799 16619 ft 435 kts 142°
2026-04-29 09:09 39.10509 20.42237 17160 ft 438 kts 142°
2026-04-29 09:10 39.08117 20.44696 17698 ft 442 kts 142°
2026-04-29 09:10 39.05702 20.47173 18244 ft 445 kts 142°
2026-04-29 09:10 39.03268 20.49653 18737 ft 448 kts 142°
2026-04-29 09:10 39.00808 20.52124 19191 ft 451 kts 142°
2026-04-29 09:11 38.98322 20.54597 19647 ft 453 kts 142°
2026-04-29 09:11 38.95816 20.57080 20099 ft 455 kts 142°
2026-04-29 09:11 38.93300 20.59569 20538 ft 458 kts 142°
2026-04-29 09:11 38.90773 20.62072 20975 ft 460 kts 142°
2026-04-29 09:12 38.88230 20.64598 21383 ft 463 kts 142°
2026-04-29 09:12 38.85688 20.67136 21811 ft 465 kts 142°
2026-04-29 09:12 38.83145 20.69724 22232 ft 468 kts 141°
2026-04-29 09:12 38.80606 20.72347 22648 ft 470 kts 141°
2026-04-29 09:13 38.78059 20.74998 23040 ft 472 kts 141°
2026-04-29 09:13 38.75504 20.77655 23432 ft 474 kts 141°
2026-04-29 09:13 38.72932 20.80320 23788 ft 477 kts 141°
2026-04-29 09:13 38.70339 20.82992 24086 ft 479 kts 141°
2026-04-29 09:14 38.67729 20.85665 24386 ft 482 kts 141°
2026-04-29 09:14 38.65105 20.88345 24698 ft 484 kts 141°
2026-04-29 09:14 38.62472 20.91026 25102 ft 483 kts 142°
2026-04-29 09:14 38.59843 20.93697 25547 ft 482 kts 141°
2026-04-29 09:15 38.57288 20.96365 25963 ft 481 kts 140°
2026-04-29 09:15 38.54751 20.99162 26394 ft 481 kts 139°
2026-04-29 09:15 38.52268 21.02005 26831 ft 479 kts 137°
2026-04-29 09:15 38.49809 21.04865 27291 ft 478 kts 137°
2026-04-29 09:16 38.47346 21.07726 27739 ft 478 kts 138°
2026-04-29 09:16 38.44877 21.10559 28185 ft 477 kts 138°
2026-04-29 09:16 38.42397 21.13366 28635 ft 477 kts 139°
2026-04-29 09:16 38.39907 21.16151 29093 ft 476 kts 139°
2026-04-29 09:17 38.37418 21.18923 29576 ft 474 kts 139°
2026-04-29 09:17 38.34937 21.21688 30045 ft 474 kts 139°
2026-04-29 09:17 38.32463 21.24449 30454 ft 473 kts 139°
2026-04-29 09:17 38.29987 21.27213 30822 ft 473 kts 139°
2026-04-29 09:18 38.27514 21.29973 31194 ft 473 kts 139°
2026-04-29 09:18 38.25044 21.32732 31516 ft 473 kts 139°
2026-04-29 09:18 38.22573 21.35494 31871 ft 473 kts 139°
2026-04-29 09:18 38.20099 21.38258 32243 ft 473 kts 139°
2026-04-29 09:19 38.17623 21.41015 32579 ft 473 kts 140°
2026-04-29 09:19 38.15148 21.43777 32933 ft 474 kts 139°
2026-04-29 09:19 38.12727 21.46601 33282 ft 474 kts 137°
2026-04-29 09:19 38.10348 21.49502 33629 ft 474 kts 136°
2026-04-29 09:20 38.07989 21.52448 33975 ft 475 kts 136°
2026-04-29 09:20 38.05644 21.55394 34302 ft 475 kts 136°
2026-04-29 09:20 38.03290 21.58333 34629 ft 475 kts 137°
2026-04-29 09:20 38.00923 21.61251 34948 ft 475 kts 137°
2026-04-29 09:21 37.98540 21.64152 35253 ft 475 kts 137°
2026-04-29 09:21 37.96146 21.67053 35517 ft 476 kts 138°
2026-04-29 09:21 37.93782 21.69910 35771 ft 477 kts 138°
2026-04-29 09:21 37.91378 21.72812 36017 ft 478 kts 138°
2026-04-29 09:22 37.88974 21.75710 36275 ft 478 kts 138°
2026-04-29 09:22 37.86567 21.78617 36534 ft 478 kts 138°
2026-04-29 09:22 37.84160 21.81531 36793 ft 479 kts 138°
2026-04-29 09:22 37.81754 21.84442 37036 ft 479 kts 138°
2026-04-29 09:23 37.79343 21.87355 37104 ft 482 kts 138°
2026-04-29 09:23 37.75260 21.92276 37122 ft 484 kts 138°
2026-04-29 09:24 37.70385 21.98153 37127 ft 485 kts 138°
2026-04-29 09:24 37.65493 22.04036 37118 ft 487 kts 138°
2026-04-29 09:25 37.60575 22.09928 37122 ft 488 kts 139°
2026-04-29 09:25 37.55655 22.15816 37129 ft 488 kts 138°
2026-04-29 09:26 37.50732 22.21692 37130 ft 488 kts 139°
2026-04-29 09:26 37.45803 22.27560 37132 ft 488 kts 139°
2026-04-29 09:27 37.41225 22.33863 37129 ft 491 kts 125°
2026-04-29 09:27 37.38204 22.41537 37110 ft 492 kts 110°
2026-04-29 09:28 37.35868 22.49624 37111 ft 493 kts 110°
2026-04-29 09:28 37.33501 22.57720 37117 ft 494 kts 110°
2026-04-29 09:29 37.31143 22.65767 37123 ft 494 kts 110°
2026-04-29 09:29 37.27579 22.77898 37128 ft 494 kts 110°
2026-04-29 09:30 37.25200 22.85981 37138 ft 493 kts 110°
2026-04-29 09:30 37.22816 22.94061 37138 ft 493 kts 110°
2026-04-29 09:31 37.20431 23.02118 37137 ft 493 kts 110°
2026-04-29 09:31 37.18040 23.10177 37136 ft 493 kts 110°
2026-04-29 09:32 37.15643 23.18232 37138 ft 493 kts 110°
2026-04-29 09:32 37.13238 23.26286 37136 ft 493 kts 110°
2026-04-29 09:33 37.10829 23.34320 37138 ft 493 kts 111°
2026-04-29 09:33 37.08407 23.42365 37137 ft 493 kts 111°
2026-04-29 09:34 37.05973 23.50398 37133 ft 493 kts 111°
2026-04-29 09:34 37.03543 23.58417 37133 ft 493 kts 111°
2026-04-29 09:35 37.01108 23.66456 37130 ft 493 kts 111°
2026-04-29 09:35 36.98669 23.74479 37131 ft 493 kts 111°
2026-04-29 09:36 36.96221 23.82493 37134 ft 493 kts 111°
2026-04-29 09:36 36.93783 23.90453 37132 ft 493 kts 111°
2026-04-29 09:37 36.91308 23.98512 37129 ft 493 kts 111°
2026-04-29 09:37 36.88845 24.06519 37129 ft 493 kts 111°
2026-04-29 09:38 36.86395 24.14465 37127 ft 494 kts 111°
2026-04-29 09:38 36.83927 24.22458 37126 ft 494 kts 111°
2026-04-29 09:39 36.81450 24.30453 37123 ft 494 kts 111°
2026-04-29 09:39 36.78963 24.38436 37123 ft 494 kts 111°
2026-04-29 09:40 36.76443 24.46406 37116 ft 494 kts 115°
2026-04-29 09:40 36.72754 24.53539 37096 ft 484 kts 134°
2026-04-29 09:41 36.70376 24.56437 36723 ft 475 kts 143°
2026-04-29 09:41 36.67833 24.59038 36124 ft 472 kts 143°
2026-04-29 09:41 36.65289 24.61620 35495 ft 471 kts 143°
2026-04-29 09:41 36.62744 24.64198 34876 ft 470 kts 143°
2026-04-29 09:42 36.60211 24.66767 34265 ft 469 kts 143°
2026-04-29 09:42 36.57688 24.69332 33557 ft 468 kts 143°
2026-04-29 09:42 36.55180 24.71882 32964 ft 465 kts 143°
2026-04-29 09:42 36.52685 24.74419 32396 ft 461 kts 143°
2026-04-29 09:43 36.50209 24.76933 31840 ft 457 kts 143°
2026-04-29 09:43 36.47755 24.79425 31299 ft 454 kts 143°
2026-04-29 09:43 36.45317 24.81899 30770 ft 450 kts 143°
2026-04-29 09:43 36.42901 24.84347 30235 ft 447 kts 143°
2026-04-29 09:44 36.40500 24.86778 29631 ft 444 kts 143°
2026-04-29 09:44 36.38109 24.89193 29059 ft 441 kts 143°
2026-04-29 09:44 36.35742 24.91581 28507 ft 437 kts 143°
2026-04-29 09:44 36.33396 24.93945 27969 ft 433 kts 143°
2026-04-29 09:45 36.31066 24.96289 27440 ft 429 kts 143°
2026-04-29 09:45 36.28765 24.98601 26922 ft 425 kts 143°
2026-04-29 09:45 36.26506 25.00872 26419 ft 421 kts 143°
2026-04-29 09:45 36.24244 25.03146 25928 ft 417 kts 143°
2026-04-29 09:46 36.22002 25.05400 25460 ft 413 kts 142°
2026-04-29 09:46 36.19784 25.07631 24988 ft 409 kts 142°
2026-04-29 09:46 36.17559 25.09866 24511 ft 405 kts 142°
2026-04-29 09:46 36.15405 25.12026 24062 ft 402 kts 142°
2026-04-29 09:47 36.13241 25.14192 23559 ft 399 kts 142°
2026-04-29 09:47 36.11056 25.16375 22964 ft 398 kts 142°
2026-04-29 09:47 36.08940 25.18488 22449 ft 395 kts 142°
2026-04-29 09:47 36.06809 25.20620 21977 ft 392 kts 142°
2026-04-29 09:48 36.04699 25.22726 21521 ft 389 kts 142°
2026-04-29 09:48 36.02601 25.24821 21069 ft 386 kts 142°
2026-04-29 09:48 36.00527 25.26892 20624 ft 383 kts 142°
2026-04-29 09:48 35.98462 25.28954 20190 ft 380 kts 142°
2026-04-29 09:49 35.96421 25.30987 19773 ft 377 kts 142°
2026-04-29 09:49 35.94381 25.33015 19353 ft 374 kts 142°
2026-04-29 09:49 35.92367 25.35015 18962 ft 370 kts 142°
2026-04-29 09:49 35.90368 25.36997 18574 ft 367 kts 143°
2026-04-29 09:50 35.88229 25.38653 18103 ft 359 kts 158°
2026-04-29 09:50 35.85857 25.39431 17297 ft 351 kts 177°
2026-04-29 09:50 35.83377 25.39481 16313 ft 363 kts 182°
2026-04-29 09:50 35.80805 25.39451 15377 ft 376 kts 182°
2026-04-29 09:51 35.78170 25.39412 14747 ft 379 kts 182°
2026-04-29 09:51 35.75538 25.39373 14240 ft 377 kts 182°
2026-04-29 09:51 35.72922 25.39338 13685 ft 372 kts 182°
2026-04-29 09:51 35.70352 25.39307 12683 ft 368 kts 181°
2026-04-29 09:52 35.67818 25.39284 11782 ft 362 kts 181°
2026-04-29 09:52 35.65384 25.39268 11617 ft 335 kts 181°
2026-04-29 09:52 35.63134 25.39254 11421 ft 314 kts 181°
2026-04-29 09:52 35.60982 25.39236 10944 ft 306 kts 181°
2026-04-29 09:53 35.58866 25.39214 10359 ft 302 kts 181°
2026-04-29 09:53 35.56765 25.39193 9724 ft 301 kts 181°
2026-04-29 09:53 35.54680 25.39172 9054 ft 299 kts 181°
2026-04-29 09:53 35.52610 25.39152 8412 ft 296 kts 181°
2026-04-29 09:54 35.50558 25.39133 7773 ft 293 kts 180°
2026-04-29 09:54 35.48532 25.39115 7148 ft 290 kts 180°
2026-04-29 09:54 35.46520 25.39103 6510 ft 288 kts 177°
2026-04-29 09:54 35.44570 25.39520 5848 ft 283 kts 159°
2026-04-29 09:55 35.42841 25.40567 5459 ft 267 kts 147°
2026-04-29 09:55 35.41282 25.41660 5176 ft 254 kts 148°
2026-04-29 09:55 35.39746 25.42709 4676 ft 252 kts 148°
2026-04-29 09:55 35.38211 25.43664 4170 ft 243 kts 160°
2026-04-29 09:56 35.36606 25.43653 3945 ft 224 kts 200°
2026-04-29 09:56 35.35421 25.42636 3686 ft 204 kts 236°
2026-04-29 09:56 35.34790 25.41126 3243 ft 199 kts 249°
2026-04-29 09:56 35.34207 25.39585 2995 ft 197 kts 248°
2026-04-29 09:57 35.33621 25.38069 2826 ft 197 kts 247°
2026-04-29 09:57 35.33051 25.36551 2653 ft 194 kts 253°
2026-04-29 09:57 35.32818 25.34988 2472 ft 187 kts 272°
2026-04-29 09:57 35.32915 25.33421 2302 ft 178 kts 277°
2026-04-29 09:58 35.33018 25.31943 2135 ft 174 kts 278°
2026-04-29 09:58 35.33120 25.30470 2082 ft 174 kts 277°
2026-04-29 09:58 35.33215 25.29043 2010 ft 160 kts 279°
2026-04-29 09:58 35.33304 25.27701 1714 ft 156 kts 278°
2026-04-29 09:59 35.33391 25.26414 1466 ft 148 kts 278°
2026-04-29 09:59 35.33474 25.25186 1246 ft 141 kts 278°
2026-04-29 09:59 35.33556 25.24008 1038 ft 137 kts 278°
2026-04-29 09:59 35.33637 25.22849 824 ft 136 kts 278°
2026-04-29 10:00 35.33718 25.21707 600 ft 134 kts 279°
2026-04-29 10:00 35.33787 25.20574 364 ft 133 kts 279°
2026-04-29 10:00 35.33874 25.19438 196 ft 134 kts 281°
2026-04-29 10:00 35.33956 25.18338 105 ft 122 kts 281°
2026-04-29 10:01 35.34044 25.17223 740 ft 136 kts 283°
2026-04-29 10:01 35.34126 25.16067 1600 ft 144 kts 279°
2026-04-29 10:01 35.34222 25.14771 2222 ft 167 kts 279°
2026-04-29 10:01 35.34347 25.13205 2154 ft 201 kts 279°
2026-04-29 10:02 35.34533 25.11441 2043 ft 211 kts 290°
2026-04-29 10:02 35.35325 25.10000 2033 ft 203 kts 327°
2026-04-29 10:02 35.36624 25.09477 2227 ft 201 kts 358°
2026-04-29 10:02 35.38038 25.09535 2483 ft 206 kts
2026-04-29 10:03 35.39475 25.09675 2746 ft 208 kts
2026-04-29 10:03 35.40868 25.10088 2943 ft 209 kts 30°
2026-04-29 10:03 35.41849 25.11378 3024 ft 212 kts 64°
2026-04-29 10:03 35.42078 25.13162 3037 ft 216 kts 90°
2026-04-29 10:04 35.41928 25.15008 3036 ft 218 kts 94°
2026-04-29 10:04 35.42050 25.16827 3045 ft 214 kts 67°
2026-04-29 10:04 35.42840 25.18320 3035 ft 208 kts 39°
2026-04-29 10:04 35.44081 25.19201 3035 ft 207 kts 23°
2026-04-29 10:05 35.45282 25.20161 3036 ft 207 kts 46°
2026-04-29 10:05 35.46004 25.21711 3034 ft 222 kts 72°
2026-04-29 10:05 35.46076 25.23587 3024 ft 218 kts 92°
2026-04-29 10:05 35.45939 25.25404 3028 ft 213 kts 91°
2026-04-29 10:06 35.45806 25.27196 3029 ft 205 kts 91°
2026-04-29 10:06 35.45681 25.28892 3025 ft 196 kts 91°
2026-04-29 10:06 35.45563 25.30519 3043 ft 187 kts 91°
2026-04-29 10:06 35.45448 25.32118 3007 ft 188 kts 91°
2026-04-29 10:07 35.45335 25.33718 3004 ft 189 kts 90°
2026-04-29 10:07 35.45222 25.35331 2999 ft 190 kts 90°
2026-04-29 10:07 35.45107 25.36945 2999 ft 190 kts 92°
2026-04-29 10:07 35.44713 25.38503 2997 ft 196 kts 114°
2026-04-29 10:08 35.43829 25.39804 2994 ft 203 kts 138°
2026-04-29 10:08 35.42610 25.40708 3000 ft 206 kts 147°
2026-04-29 10:08 35.41360 25.41561 2997 ft 206 kts 147°
2026-04-29 10:08 35.40533 25.42128 2997 ft 206 kts 147°
2026-04-29 10:09 35.39285 25.42984 2997 ft 205 kts 147°
2026-04-29 10:09 35.38024 25.43804 2991 ft 205 kts 157°
2026-04-29 10:09 35.36619 25.43874 2990 ft 207 kts 198°
2026-04-29 10:09 35.35485 25.42874 2997 ft 203 kts 238°
2026-04-29 10:10 35.34886 25.41314 3008 ft 202 kts 250°
2026-04-29 10:10 35.34299 25.39746 2998 ft 203 kts 248°
2026-04-29 10:10 35.33692 25.38192 3006 ft 202 kts 248°
2026-04-29 10:10 35.33090 25.36626 2863 ft 205 kts 252°
2026-04-29 10:11 35.32823 25.34960 2720 ft 195 kts 273°
2026-04-29 10:11 35.32916 25.33350 2580 ft 186 kts 278°
2026-04-29 10:11 35.33022 25.31794 2350 ft 183 kts 278°
2026-04-29 10:11 35.33129 25.30247 2134 ft 180 kts 277°
2026-04-29 10:12 35.33233 25.28753 1891 ft 172 kts 277°
2026-04-29 10:12 35.33330 25.27342 1630 ft 161 kts 277°
2026-04-29 10:12 35.33419 25.26028 1387 ft 149 kts 277°
2026-04-29 10:12 35.33502 25.24804 1174 ft 141 kts 278°
2026-04-29 10:13 35.33581 25.23626 968 ft 137 kts 278°
2026-04-29 10:13 35.33661 25.22473 758 ft 135 kts 278°
2026-04-29 10:13 35.33740 25.21332 531 ft 134 kts 278°
2026-04-29 10:13 35.33824 25.20220 327 ft 133 kts 276°
2026-04-29 10:14 35.33899 25.19100 120 ft 131 kts 277°
2026-04-29 10:14 35.33973 25.18078 93 ft 94 kts 274°
2026-04-29 10:14 35.34006 25.17596 92 ft 38 kts 275°
2026-04-29 10:14 35.34027 25.17297 90 ft 33 kts 275°
2026-04-29 10:15 35.33987 25.17090 91 ft 19 kts 244°
2026-04-29 10:15 35.33940 25.17101 92 ft 9 kts 101°
2026-04-29 10:15 35.33933 25.17198 90 ft 11 kts 95°
2026-04-29 10:15 35.33926 25.17288 91 ft 10 kts 95°
2026-04-29 10:16 35.33912 25.17365 91 ft 9 kts 129°
2026-04-29 10:16 35.33860 25.17374 92 ft 7 kts 185°
2026-04-29 10:16 35.33811 25.17368 91 ft 7 kts 185°
2026-04-29 10:16 35.33774 25.17383 93 ft 6 kts 128°
2026-04-29 10:17 35.33767 25.17426 92 ft 0 kts 95°